contact:dominique.lefevre@mio.osupytheas.fr, maurice.libes@osupytheas.fr, didier.mallarino@osupytheas.fr
Project:EMSO http://www.emso-fr.org/EMSO-France
Depth: 2436.0 m
Title:EMSO Ligure Ouest : Data MII capteur AQUADOPP
Date,Latitude,Longitude,X_East,Y_North,Z_Up,Amplitude_X,Amplitude_Y,Amplitude_Z,Batterie,SoundSpeed,Heading,Pitch,Roll,Pressure,TIS,Speed,Direction
, degrees North, degrees East, m.s-1, m.s-1,m.s-1, 1, 1, 1, Volt, m.s-1, degree, degree, degree, dbar, degree_C, m.s-1, degree
2019-05-29T00:09:04,42.805,6.029,0.039,0.002,-0.017,99.0,103.0,96.0,13.4,1505.2,327.6,-0.8,1.9,2470.139,13.3,0.039,87.1
2019-05-29T00:12:05,42.805,6.029,0.068,0.017,0.006,100.0,104.0,95.0,13.4,1505.3,324.5,-0.8,1.8,2470.126,13.31,0.07,76.0
2019-05-29T00:15:06,42.805,6.029,0.053,0.015,-0.012,98.0,103.0,96.0,13.4,1505.3,327.2,-0.8,1.9,2470.139,13.31,0.055,74.2
2019-05-29T00:18:07,42.805,6.029,0.044,0.034,-0.02,100.0,103.0,95.0,13.4,1505.3,325.9,-0.8,1.9,2470.046,13.32,0.055,52.3
2019-05-29T00:21:08,42.805,6.029,0.066,0.038,-0.017,100.0,103.0,96.0,13.3,1505.3,325.9,-0.8,1.8,2470.036,13.32,0.076,60.1
2019-05-29T00:24:09,42.805,6.029,0.068,0.024,0.017,98.0,102.0,97.0,13.4,1505.3,324.9,-0.8,1.9,2470.111,13.32,0.072,70.6
2019-05-29T00:27:10,42.805,6.029,0.062,0.02,0.001,100.0,102.0,96.0,13.4,1505.3,326.5,-0.7,1.9,2470.062,13.33,0.065,72.1
2019-05-29T00:30:11,42.805,6.029,0.046,0.025,-0.016,100.0,102.0,95.0,13.4,1505.3,325.6,-0.8,1.9,2470.091,13.33,0.052,61.5
2019-05-29T00:33:12,42.805,6.029,0.044,0.021,-0.004,99.0,102.0,96.0,13.4,1505.3,325.7,-0.7,1.9,2470.084,13.33,0.048,64.5
2019-05-29T00:36:13,42.805,6.029,0.051,0.016,0.003,101.0,101.0,97.0,13.3,1505.3,322.9,-0.8,1.9,2470.072,13.33,0.053,72.6
2019-05-29T00:39:14,42.805,6.029,0.041,0.011,0.0,99.0,103.0,97.0,13.4,1505.3,326.2,-0.7,1.8,2470.04,13.33,0.042,75.0
2019-05-29T00:42:15,42.805,6.029,-0.018,-0.003,-0.086,99.0,106.0,97.0,13.4,1505.3,323.0,-0.8,1.8,2470.07,13.33,0.018,260.5
2019-05-29T00:45:16,42.805,6.029,0.041,0.006,-0.008,99.0,105.0,95.0,13.4,1505.3,324.5,-0.8,1.9,2470.106,13.33,0.041,81.7
2019-05-29T00:48:17,42.805,6.029,0.051,0.019,-0.005,100.0,102.0,97.0,13.4,1505.3,326.6,-0.8,1.9,2470.054,13.33,0.054,69.6
2019-05-29T00:51:18,42.805,6.029,0.046,0.011,-0.004,100.0,102.0,97.0,13.4,1505.3,323.2,-0.7,1.8,2470.06,13.33,0.047,76.6
2019-05-29T00:54:19,42.805,6.029,0.033,0.013,-0.029,99.0,103.0,97.0,13.3,1505.3,327.6,-0.8,1.8,2470.098,13.33,0.035,68.5
2019-05-29T00:57:20,42.805,6.029,0.041,0.02,-0.012,100.0,101.0,97.0,13.4,1505.3,324.5,-0.8,1.9,2470.055,13.33,0.045,64.0
2019-05-29T01:00:21,42.805,6.029,0.042,0.022,-0.024,98.0,101.0,97.0,13.4,1505.3,327.7,-0.8,1.9,2470.081,13.33,0.047,62.4
2019-05-29T01:03:22,42.805,6.029,0.06,0.019,-0.027,97.0,102.0,97.0,13.3,1505.3,326.3,-0.8,1.9,2470.095,13.33,0.062,72.4
2019-05-29T01:06:23,42.805,6.029,0.069,0.003,-0.024,101.0,102.0,96.0,13.3,1505.3,325.7,-0.8,1.9,2470.071,13.33,0.069,87.5
2019-05-29T01:09:24,42.805,6.029,0.044,0.0,-0.011,100.0,102.0,97.0,13.3,1505.3,327.8,-0.8,1.8,2470.033,13.33,0.044,90.0
2019-05-29T01:12:25,42.805,6.029,0.065,0.018,-0.014,98.0,101.0,97.0,13.3,1505.3,324.4,-0.7,1.9,2470.04,13.33,0.067,74.5
2019-05-29T01:15:26,42.805,6.029,0.033,0.025,-0.041,100.0,101.0,96.0,13.3,1505.3,324.8,-0.8,1.8,2470.068,13.33,0.041,52.9
2019-05-29T01:18:27,42.805,6.029,0.044,-0.005,-0.009,99.0,103.0,98.0,13.3,1505.3,327.8,-0.8,1.9,2470.074,13.33,0.044,96.5
2019-05-29T01:21:28,42.805,6.029,0.067,0.015,-0.023,98.0,104.0,96.0,13.4,1505.3,326.6,-0.8,1.9,2470.118,13.33,0.068,77.4
2019-05-29T01:24:29,42.805,6.029,0.062,0.026,0.018,101.0,102.0,96.0,13.4,1505.3,325.6,-0.8,1.8,2470.026,13.33,0.067,67.3
2019-05-29T01:27:30,42.805,6.029,0.054,0.0,-0.022,99.0,103.0,97.0,13.4,1505.3,327.2,-0.8,1.9,2470.09,13.33,0.053,90.0
2019-05-29T01:30:31,42.805,6.029,0.031,0.006,-0.014,100.0,102.0,96.0,13.4,1505.3,325.9,-0.7,1.8,2470.058,13.33,0.031,79.0
2019-05-29T01:33:32,42.805,6.029,0.026,-0.006,-0.018,99.0,103.0,96.0,13.4,1505.3,325.1,-0.8,1.9,2470.071,13.33,0.026,103.0
2019-05-29T01:36:33,42.805,6.029,0.015,0.01,-0.041,101.0,103.0,97.0,13.3,1505.3,327.5,-0.8,1.8,2470.042,13.33,0.018,56.3
2019-05-29T01:39:34,42.805,6.029,0.022,0.001,-0.041,101.0,104.0,97.0,13.3,1505.3,324.8,-0.8,1.8,2470.089,13.33,0.022,87.4
2019-05-29T01:42:35,42.805,6.029,0.0,0.004,-0.034,101.0,105.0,97.0,13.3,1505.3,326.9,-0.7,1.9,2470.075,13.33,0.004,0.0
2019-05-29T01:45:36,42.805,6.029,0.013,-0.004,-0.043,99.0,104.0,98.0,13.4,1505.3,325.5,-0.8,1.8,2470.103,13.33,0.013,107.1
2019-05-29T01:48:37,42.805,6.029,0.026,0.014,-0.03,99.0,102.0,97.0,13.4,1505.3,323.3,-0.7,1.8,2470.109,13.33,0.029,61.7
2019-05-29T01:51:38,42.805,6.029,0.032,0.0,-0.026,99.0,102.0,97.0,13.4,1505.3,324.4,-0.8,1.9,2470.044,13.33,0.032,90.0
2019-05-29T01:54:39,42.805,6.029,0.065,-0.012,0.001,100.0,103.0,97.0,13.3,1505.3,326.8,-0.8,1.8,2470.074,13.33,0.066,100.5
2019-05-29T01:57:40,42.805,6.029,0.055,0.003,-0.006,100.0,103.0,96.0,13.4,1505.3,327.5,-0.8,1.8,2470.072,13.33,0.055,86.9
2019-05-29T02:00:41,42.805,6.029,0.044,0.008,-0.002,100.0,105.0,97.0,13.4,1505.3,326.3,-0.8,1.9,2470.073,13.33,0.044,79.7
2019-05-29T02:03:42,42.805,6.029,0.067,-0.013,-0.004,99.0,104.0,97.0,13.4,1505.3,324.5,-0.7,1.9,2470.09,13.33,0.068,101.0
2019-05-29T02:06:43,42.805,6.029,0.069,-0.008,0.007,98.0,102.0,97.0,13.4,1505.3,327.5,-0.8,1.8,2470.069,13.33,0.069,96.6
2019-05-29T02:09:44,42.805,6.029,0.032,0.004,0.001,98.0,105.0,96.0,13.3,1505.3,326.8,-0.8,1.9,2470.114,13.33,0.032,82.9
2019-05-29T02:12:45,42.805,6.029,0.035,-0.01,-0.075,99.0,105.0,96.0,13.4,1505.3,323.7,-0.8,1.8,2470.1,13.33,0.036,105.9
2019-05-29T02:15:46,42.805,6.029,0.046,-0.02,-0.053,99.0,105.0,96.0,13.4,1505.3,324.2,-0.7,1.8,2470.096,13.33,0.05,113.5
2019-05-29T02:18:47,42.805,6.029,0.033,0.008,-0.038,100.0,107.0,96.0,13.4,1505.3,323.4,-0.8,1.8,2470.133,13.33,0.033,76.4
2019-05-29T02:21:48,42.805,6.029,0.032,0.0,-0.031,99.0,105.0,97.0,13.3,1505.3,327.7,-0.7,1.8,2470.132,13.32,0.032,90.0
2019-05-29T02:24:49,42.805,6.029,0.056,-0.02,-0.057,100.0,105.0,97.0,13.3,1505.3,325.5,-0.8,1.9,2470.118,13.33,0.059,109.6
2019-05-29T02:27:50,42.805,6.029,0.028,0.004,-0.038,103.0,104.0,97.0,13.4,1505.3,325.6,-0.7,1.9,2470.055,13.32,0.028,81.9
2019-05-29T02:30:51,42.805,6.029,0.02,0.008,-0.007,100.0,104.0,99.0,13.3,1505.3,323.1,-0.8,1.8,2470.098,13.33,0.021,68.2
2019-05-29T02:33:52,42.805,6.029,0.04,-0.011,-0.015,101.0,105.0,97.0,13.4,1505.3,326.1,-0.7,1.8,2470.109,13.33,0.041,105.4
2019-05-29T02:36:53,42.805,6.029,0.064,0.012,-0.009,99.0,104.0,97.0,13.4,1505.3,326.0,-0.8,1.9,2470.137,13.32,0.065,79.4
2019-05-29T02:39:54,42.805,6.029,0.041,0.001,-0.016,99.0,106.0,97.0,13.4,1505.3,324.9,-0.7,1.9,2470.134,13.32,0.041,88.6
2019-05-29T02:42:55,42.805,6.029,0.032,-0.004,-0.045,98.0,106.0,97.0,13.4,1505.3,323.2,-0.7,1.9,2470.141,13.32,0.032,97.1
2019-05-29T02:45:56,42.805,6.029,0.042,0.008,-0.015,100.0,105.0,96.0,13.4,1505.3,326.4,-0.7,1.9,2470.065,13.32,0.042,79.2
2019-05-29T02:48:57,42.805,6.029,0.038,0.01,-0.024,98.0,104.0,98.0,13.4,1505.3,325.0,-0.8,1.8,2470.067,13.32,0.039,75.3
2019-05-29T02:51:58,42.805,6.029,0.042,-0.01,-0.027,98.0,100.0,97.0,13.4,1505.3,326.4,-0.8,1.8,2470.071,13.32,0.043,103.4
2019-05-29T02:54:59,42.805,6.029,-0.001,-0.02,-0.039,99.0,101.0,98.0,13.4,1505.3,326.1,-0.7,1.9,2470.09,13.32,0.02,182.9
2019-05-29T02:58:00,42.805,6.029,0.013,-0.017,-0.054,99.0,102.0,98.0,13.3,1505.3,326.5,-0.8,1.9,2470.103,13.32,0.021,142.6
2019-05-29T03:01:01,42.805,6.029,0.033,-0.017,-0.042,100.0,103.0,97.0,13.4,1505.3,324.2,-0.8,1.8,2470.096,13.32,0.037,117.3
2019-05-29T03:04:02,42.805,6.029,0.034,0.006,-0.011,99.0,104.0,98.0,13.3,1505.3,324.1,-0.8,1.8,2470.128,13.32,0.034,80.0
2019-05-29T03:07:03,42.805,6.029,0.01,-0.001,-0.048,99.0,103.0,97.0,13.4,1505.3,326.6,-0.8,1.9,2470.154,13.32,0.01,95.7
2019-05-29T03:10:04,42.805,6.029,0.014,-0.015,-0.023,100.0,102.0,98.0,13.4,1505.3,327.1,-0.7,1.9,2470.109,13.32,0.02,137.0
2019-05-29T03:13:05,42.805,6.029,0.019,0.001,-0.02,99.0,102.0,99.0,13.4,1505.3,324.8,-0.8,1.9,2470.108,13.32,0.019,87.0
2019-05-29T03:16:06,42.805,6.029,0.043,-0.024,-0.028,100.0,102.0,97.0,13.4,1505.3,325.2,-0.8,1.8,2470.135,13.32,0.049,119.2
2019-05-29T03:19:07,42.805,6.029,0.016,0.006,-0.051,101.0,101.0,97.0,13.4,1505.3,322.8,-0.8,1.9,2470.117,13.32,0.017,69.4
2019-05-29T03:22:08,42.805,6.029,0.022,-0.005,-0.057,102.0,101.0,96.0,13.4,1505.3,327.9,-0.7,1.8,2470.12,13.32,0.022,102.8
2019-05-29T03:25:09,42.805,6.029,0.01,-0.02,-0.036,99.0,101.0,96.0,13.4,1505.3,325.4,-0.8,1.9,2470.14,13.32,0.022,153.4
2019-05-29T03:28:10,42.805,6.029,0.024,0.001,-0.052,101.0,101.0,97.0,13.4,1505.3,325.6,-0.8,1.8,2470.105,13.32,0.024,87.6
2019-05-29T03:31:11,42.805,6.029,0.03,0.0,-0.036,101.0,100.0,97.0,13.3,1505.3,325.9,-0.8,1.8,2470.096,13.32,0.03,90.0
2019-05-29T03:34:12,42.805,6.029,0.033,0.012,-0.015,100.0,100.0,96.0,13.4,1505.3,327.9,-0.8,1.8,2470.092,13.32,0.035,70.0
2019-05-29T03:37:13,42.805,6.029,0.015,-0.017,-0.051,100.0,101.0,97.0,13.4,1505.3,325.1,-0.8,1.9,2470.141,13.32,0.022,138.6
2019-05-29T03:40:14,42.805,6.029,0.0,0.008,-0.055,99.0,103.0,96.0,13.3,1505.3,324.1,-0.8,1.9,2470.151,13.32,0.008,0.0
2019-05-29T03:43:15,42.805,6.029,0.052,-0.014,-0.024,99.0,101.0,98.0,13.3,1505.3,324.9,-0.8,1.9,2470.123,13.32,0.053,105.1
2019-05-29T03:46:16,42.805,6.029,0.007,-0.013,-0.052,100.0,103.0,96.0,13.4,1505.3,326.3,-0.7,1.8,2470.168,13.32,0.014,151.7
2019-05-29T03:49:17,42.805,6.029,0.038,-0.004,-0.03,99.0,102.0,96.0,13.4,1505.3,325.6,-0.8,1.9,2470.125,13.32,0.038,96.0
2019-05-29T03:52:18,42.805,6.029,0.03,-0.011,-0.014,101.0,101.0,98.0,13.4,1505.3,323.9,-0.7,1.8,2470.157,13.32,0.031,110.1
2019-05-29T03:55:19,42.805,6.029,0.008,-0.028,-0.03,99.0,103.0,98.0,13.4,1505.3,326.6,-0.7,1.8,2470.144,13.32,0.029,164.1
2019-05-29T03:58:20,42.805,6.029,0.026,-0.015,-0.031,101.0,102.0,96.0,13.4,1505.3,325.6,-0.8,1.9,2470.106,13.32,0.03,120.0
2019-05-29T04:01:21,42.805,6.029,0.024,-0.022,-0.04,99.0,102.0,96.0,13.4,1505.3,324.7,-0.7,1.8,2470.098,13.32,0.032,132.5
2019-05-29T04:04:22,42.805,6.029,0.021,-0.026,-0.041,99.0,103.0,97.0,13.3,1505.3,326.6,-0.8,1.9,2470.114,13.32,0.033,141.1
2019-05-29T04:07:23,42.805,6.029,0.038,-0.032,-0.051,99.0,103.0,97.0,13.3,1505.3,325.9,-0.7,1.8,2470.142,13.32,0.049,130.1
2019-05-29T04:10:24,42.805,6.029,0.031,-0.015,-0.045,99.0,102.0,97.0,13.3,1505.3,323.4,-0.8,1.8,2470.161,13.32,0.034,115.8
2019-05-29T04:13:25,42.805,6.029,0.025,-0.032,-0.028,101.0,101.0,97.0,13.4,1505.3,324.6,-0.8,1.8,2470.144,13.32,0.04,142.0
2019-05-29T04:16:26,42.805,6.029,0.012,-0.044,-0.048,99.0,103.0,98.0,13.4,1505.3,326.5,-0.8,1.9,2470.101,13.32,0.045,164.7
2019-05-29T04:19:27,42.805,6.029,0.037,-0.028,-0.056,100.0,103.0,97.0,13.3,1505.3,325.8,-0.7,1.9,2470.139,13.32,0.046,127.1
2019-05-29T04:22:28,42.805,6.029,0.028,-0.04,-0.039,99.0,101.0,98.0,13.4,1505.3,324.9,-0.7,1.9,2470.119,13.32,0.048,145.0
2019-05-29T04:25:29,42.805,6.029,0.015,-0.017,-0.025,102.0,100.0,97.0,13.3,1505.3,323.9,-0.8,1.9,2470.139,13.32,0.022,138.6
2019-05-29T04:28:30,42.805,6.029,0.027,-0.012,-0.005,100.0,101.0,98.0,13.3,1505.3,325.9,-0.7,1.9,2470.122,13.32,0.029,114.0
2019-05-29T04:31:31,42.805,6.029,0.019,-0.025,0.004,100.0,101.0,97.0,13.4,1505.3,326.9,-0.7,1.9,2470.128,13.32,0.031,142.8
2019-05-29T04:34:32,42.805,6.029,0.022,-0.019,-0.03,99.0,100.0,98.0,13.3,1505.3,328.0,-0.8,1.8,2470.123,13.32,0.029,130.8
2019-05-29T04:37:33,42.805,6.029,0.035,-0.05,-0.05,100.0,101.0,97.0,13.4,1505.3,326.4,-0.8,1.9,2470.119,13.32,0.061,145.0
2019-05-29T04:40:34,42.805,6.029,0.022,-0.015,-0.019,101.0,102.0,97.0,13.4,1505.3,327.3,-0.7,1.9,2470.142,13.32,0.026,124.3
2019-05-29T04:43:35,42.805,6.029,0.07,-0.022,0.009,101.0,102.0,96.0,13.3,1505.3,326.0,-0.8,1.8,2470.129,13.32,0.073,107.4
2019-05-29T04:46:36,42.805,6.029,0.027,-0.015,-0.005,100.0,104.0,97.0,13.4,1505.3,323.6,-0.8,1.8,2470.11,13.32,0.03,119.1
2019-05-29T04:49:37,42.805,6.029,0.027,-0.023,-0.029,101.0,101.0,97.0,13.3,1505.3,328.2,-0.8,1.9,2470.096,13.32,0.035,130.4
2019-05-29T04:52:38,42.805,6.029,0.043,-0.009,0.0,100.0,100.0,97.0,13.4,1505.3,325.0,-0.8,1.9,2470.102,13.32,0.043,101.8
2019-05-29T04:55:39,42.805,6.029,0.034,-0.021,-0.005,100.0,100.0,96.0,13.3,1505.3,322.7,-0.8,1.9,2470.131,13.32,0.039,121.7
2019-05-29T04:58:40,42.805,6.029,0.016,-0.021,-0.017,100.0,101.0,97.0,13.4,1505.3,328.4,-0.7,1.9,2470.126,13.32,0.026,142.7
2019-05-29T05:01:41,42.805,6.029,0.025,-0.016,0.003,100.0,101.0,98.0,13.3,1505.3,326.4,-0.8,1.8,2470.106,13.32,0.029,122.6
2019-05-29T05:04:42,42.805,6.029,0.034,-0.005,0.006,100.0,102.0,98.0,13.4,1505.3,327.8,-0.7,1.8,2470.122,13.32,0.034,98.4
2019-05-29T05:07:43,42.805,6.029,0.038,-0.012,-0.017,100.0,102.0,97.0,13.4,1505.3,326.6,-0.8,1.9,2470.136,13.32,0.039,107.5
2019-05-29T05:10:44,42.805,6.029,0.024,-0.02,-0.024,101.0,101.0,98.0,13.4,1505.3,324.7,-0.8,1.9,2470.129,13.32,0.031,129.8
2019-05-29T05:13:45,42.805,6.029,0.042,-0.022,-0.044,101.0,102.0,96.0,13.4,1505.3,323.5,-0.7,1.9,2470.116,13.32,0.047,117.6
2019-05-29T05:16:46,42.805,6.029,0.017,-0.021,-0.058,100.0,102.0,98.0,13.3,1505.3,325.0,-0.8,1.9,2470.147,13.32,0.027,141.0
2019-05-29T05:19:47,42.805,6.029,0.043,-0.013,-0.014,100.0,101.0,97.0,13.4,1505.3,322.9,-0.7,1.9,2470.115,13.32,0.044,106.8
2019-05-29T05:22:48,42.805,6.029,0.04,-0.014,0.0,99.0,100.0,97.0,13.4,1505.3,326.4,-0.8,1.8,2470.09,13.32,0.042,109.3
2019-05-29T05:25:49,42.805,6.029,0.012,-0.017,-0.05,102.0,100.0,97.0,13.4,1505.3,327.0,-0.7,1.8,2470.152,13.32,0.02,144.8
2019-05-29T05:28:50,42.805,6.029,0.031,-0.019,-0.014,101.0,101.0,97.0,13.3,1505.3,325.3,-0.7,1.9,2470.143,13.32,0.036,121.5
2019-05-29T05:31:51,42.805,6.029,0.062,-0.01,-0.016,101.0,101.0,97.0,13.4,1505.3,325.2,-0.8,1.8,2470.081,13.32,0.062,99.2
2019-05-29T05:34:52,42.805,6.029,0.027,-0.018,-0.042,100.0,102.0,97.0,13.4,1505.3,324.4,-0.8,1.9,2470.087,13.32,0.032,123.7
2019-05-29T05:37:53,42.805,6.029,0.025,-0.031,-0.05,99.0,102.0,98.0,13.4,1505.3,327.8,-0.7,1.8,2470.134,13.32,0.039,141.1
2019-05-29T05:40:54,42.805,6.029,0.004,-0.018,-0.027,101.0,101.0,97.0,13.4,1505.3,325.6,-0.8,1.9,2470.045,13.32,0.018,167.5
2019-05-29T05:43:55,42.805,6.029,0.043,-0.028,-0.003,102.0,101.0,97.0,13.4,1505.3,322.9,-0.8,1.9,2470.125,13.32,0.051,123.1
2019-05-29T05:46:56,42.805,6.029,0.02,-0.023,-0.061,101.0,102.0,98.0,13.3,1505.3,325.0,-0.8,1.9,2470.079,13.32,0.03,139.0
2019-05-29T05:49:57,42.805,6.029,0.044,-0.028,0.0,99.0,102.0,97.0,13.3,1505.3,325.2,-0.8,1.9,2470.12,13.32,0.052,122.5
2019-05-29T05:52:58,42.805,6.029,0.043,0.001,-0.028,100.0,101.0,98.0,13.4,1505.3,326.6,-0.8,1.9,2470.131,13.32,0.043,88.7
2019-05-29T05:55:59,42.805,6.029,0.046,-0.017,-0.016,100.0,102.0,97.0,13.4,1505.3,326.7,-0.7,1.9,2470.091,13.32,0.049,110.3
2019-05-29T05:59:00,42.805,6.029,0.031,-0.016,-0.033,101.0,102.0,97.0,13.3,1505.3,326.0,-0.7,1.8,2470.081,13.32,0.034,117.3
2019-05-29T06:02:01,42.805,6.029,0.031,-0.016,-0.018,99.0,102.0,97.0,13.4,1505.3,325.9,-0.7,1.8,2470.118,13.32,0.034,117.3
2019-05-29T06:05:02,42.805,6.029,-0.002,-0.034,-0.035,101.0,104.0,98.0,13.4,1505.3,324.7,-0.7,1.9,2470.103,13.32,0.034,183.4
2019-05-29T06:08:03,42.805,6.029,0.02,0.0,-0.008,100.0,102.0,97.0,13.3,1505.3,325.4,-0.8,1.8,2470.102,13.32,0.02,90.0
2019-05-29T06:11:04,42.805,6.029,0.038,-0.022,-0.02,99.0,101.0,98.0,13.4,1505.3,322.9,-0.7,1.9,2470.077,13.32,0.043,120.1
2019-05-29T06:14:05,42.805,6.029,0.006,-0.013,-0.041,100.0,102.0,96.0,13.4,1505.3,326.5,-0.8,1.9,2470.098,13.32,0.014,155.2
2019-05-29T06:17:06,42.805,6.029,0.011,-0.026,-0.083,100.0,102.0,97.0,13.4,1505.3,322.8,-0.7,1.9,2470.089,13.32,0.028,157.1
2019-05-29T06:20:07,42.805,6.029,0.021,-0.003,-0.03,102.0,100.0,97.0,13.3,1505.3,326.4,-0.7,1.9,2470.087,13.32,0.021,98.1
2019-05-29T06:23:08,42.805,6.029,0.021,-0.007,-0.041,100.0,102.0,97.0,13.4,1505.3,326.3,-0.7,1.9,2470.106,13.32,0.022,108.4
2019-05-29T06:26:09,42.805,6.029,0.0,-0.012,-0.038,99.0,100.0,97.0,13.4,1505.3,328.0,-0.7,1.8,2470.067,13.32,0.012,180.0
2019-05-29T06:29:10,42.805,6.029,0.0,-0.023,-0.072,98.0,102.0,97.0,13.4,1505.3,326.7,-0.8,1.9,2470.108,13.32,0.023,180.0
2019-05-29T06:32:11,42.805,6.029,0.04,-0.032,-0.061,99.0,102.0,97.0,13.4,1505.3,327.1,-0.7,1.9,2470.053,13.32,0.051,128.7
2019-05-29T06:35:12,42.805,6.029,0.025,-0.015,-0.016,100.0,101.0,97.0,13.4,1505.3,326.8,-0.8,1.9,2470.087,13.32,0.029,121.0
2019-05-29T06:38:13,42.805,6.029,0.026,-0.03,-0.025,100.0,100.0,96.0,13.3,1505.3,327.6,-0.8,1.8,2470.045,13.32,0.039,139.1
2019-05-29T06:41:14,42.805,6.029,0.02,-0.017,-0.024,100.0,101.0,97.0,13.4,1505.3,326.1,-0.8,1.9,2470.12,13.32,0.026,130.4
2019-05-29T06:44:15,42.805,6.029,0.007,-0.015,-0.018,100.0,101.0,97.0,13.4,1505.3,323.3,-0.7,1.9,2470.093,13.32,0.016,155.0
2019-05-29T06:47:16,42.805,6.029,0.031,-0.009,-0.014,101.0,100.0,96.0,13.4,1505.3,327.0,-0.8,1.9,2470.041,13.32,0.032,106.2
2019-05-29T06:50:17,42.805,6.029,0.026,-0.007,-0.009,101.0,100.0,97.0,13.4,1505.3,324.7,-0.7,1.9,2470.05,13.32,0.026,105.1
2019-05-29T06:53:18,42.805,6.029,0.026,-0.017,-0.031,100.0,101.0,98.0,13.3,1505.3,323.7,-0.8,1.8,2470.1,13.32,0.031,123.2
2019-05-29T06:56:19,42.805,6.029,0.023,-0.018,-0.014,99.0,101.0,97.0,13.4,1505.3,324.3,-0.8,1.9,2470.053,13.32,0.029,128.0
2019-05-29T06:59:20,42.805,6.029,0.005,-0.006,0.015,99.0,103.0,97.0,13.3,1505.3,322.6,-0.7,1.9,2470.109,13.32,0.007,140.2
2019-05-29T07:02:21,42.805,6.029,-0.015,-0.012,-0.084,100.0,101.0,97.0,13.4,1505.3,325.5,-0.8,1.8,2470.055,13.32,0.019,231.3
2019-05-29T07:05:22,42.805,6.029,0.046,-0.026,-0.039,100.0,101.0,97.0,13.4,1505.3,322.9,-0.8,1.9,2470.044,13.32,0.052,119.5
2019-05-29T07:08:23,42.805,6.029,0.008,-0.02,-0.022,100.0,101.0,97.0,13.4,1505.3,326.0,-0.7,1.9,2470.091,13.32,0.021,158.2
2019-05-29T07:11:24,42.805,6.029,0.037,-0.021,-0.02,99.0,101.0,97.0,13.4,1505.3,324.9,-0.8,1.9,2470.052,13.32,0.042,119.6
2019-05-29T07:14:25,42.805,6.029,0.009,-0.029,-0.03,100.0,99.0,97.0,13.4,1505.3,327.8,-0.7,1.8,2470.087,13.32,0.03,162.8
2019-05-29T07:17:26,42.805,6.029,0.026,-0.019,0.017,102.0,101.0,97.0,13.4,1505.3,325.2,-0.8,1.8,2470.053,13.32,0.032,126.2
2019-05-29T07:20:27,42.805,6.029,0.005,-0.017,-0.008,100.0,102.0,97.0,13.4,1505.3,326.2,-0.8,1.8,2470.052,13.32,0.017,163.6
2019-05-29T07:23:28,42.805,6.029,0.023,-0.011,-0.001,100.0,101.0,97.0,13.4,1505.3,324.4,-0.8,1.8,2470.109,13.32,0.025,115.6
2019-05-29T07:26:29,42.805,6.029,0.001,-0.019,-0.041,101.0,99.0,96.0,13.3,1505.3,325.7,-0.7,1.8,2470.024,13.32,0.019,177.0
2019-05-29T07:29:30,42.805,6.029,0.014,-0.012,0.002,101.0,102.0,97.0,13.4,1505.3,327.4,-0.8,1.8,2470.034,13.32,0.018,130.6
2019-05-29T07:32:31,42.805,6.029,0.018,-0.03,-0.03,100.0,101.0,97.0,13.4,1505.3,327.0,-0.7,1.9,2470.042,13.32,0.034,149.0
2019-05-29T07:35:32,42.805,6.029,0.011,-0.012,-0.072,100.0,102.0,98.0,13.4,1505.3,326.8,-0.8,1.9,2470.074,13.32,0.016,137.5
2019-05-29T07:38:33,42.805,6.029,0.0,-0.017,-0.021,100.0,101.0,98.0,13.3,1505.3,324.3,-0.8,1.8,2470.062,13.32,0.017,180.0
2019-05-29T07:41:34,42.805,6.029,-0.008,-0.005,-0.053,100.0,101.0,97.0,13.4,1505.3,325.6,-0.8,1.8,2470.025,13.32,0.009,238.0
2019-05-29T07:44:35,42.805,6.029,0.002,-0.028,-0.043,101.0,102.0,96.0,13.3,1505.3,324.0,-0.8,1.9,2470.021,13.32,0.028,175.9
2019-05-29T07:47:36,42.805,6.029,-0.005,-0.006,-0.02,100.0,100.0,98.0,13.4,1505.3,327.0,-0.8,1.9,2470.04,13.32,0.007,219.8
2019-05-29T07:50:37,42.805,6.029,0.001,-0.005,-0.06,102.0,101.0,97.0,13.3,1505.3,324.3,-0.8,1.9,2470.067,13.32,0.005,168.7
2019-05-29T07:53:38,42.805,6.029,0.014,0.001,-0.009,101.0,101.0,96.0,13.3,1505.3,325.0,-0.7,1.9,2470.05,13.32,0.014,85.9
2019-05-29T07:56:39,42.805,6.029,-0.01,-0.013,-0.029,101.0,102.0,97.0,13.3,1505.3,327.2,-0.7,1.9,2470.003,13.32,0.016,217.6
2019-05-29T07:59:40,42.805,6.029,0.011,-0.004,-0.013,99.0,101.0,98.0,13.4,1505.3,326.4,-0.8,1.8,2470.098,13.32,0.011,110.0
2019-05-29T08:02:41,42.805,6.029,0.018,0.008,-0.026,100.0,103.0,98.0,13.4,1505.3,326.5,-0.7,1.9,2470.037,13.32,0.019,66.0
2019-05-29T08:05:42,42.805,6.029,0.025,-0.001,-0.025,100.0,101.0,97.0,13.4,1505.3,323.5,-0.8,1.9,2470.03,13.32,0.025,92.3
2019-05-29T08:08:43,42.805,6.029,0.03,-0.009,-0.007,100.0,102.0,98.0,13.4,1505.3,326.4,-0.7,1.9,2470.063,13.32,0.031,106.7
2019-05-29T08:11:44,42.805,6.029,0.015,-0.011,-0.045,101.0,102.0,98.0,13.3,1505.3,327.0,-0.7,1.9,2470.049,13.32,0.018,126.3
2019-05-29T08:14:45,42.805,6.029,0.018,-0.009,-0.005,101.0,102.0,98.0,13.4,1505.3,326.2,-0.7,1.9,2470.035,13.32,0.02,116.6
2019-05-29T08:17:46,42.805,6.029,-0.018,-0.016,-0.013,100.0,101.0,97.0,13.3,1505.3,326.7,-0.8,1.9,2470.037,13.32,0.024,228.4
2019-05-29T08:20:47,42.805,6.029,0.01,-0.006,-0.037,100.0,102.0,98.0,13.3,1505.3,326.8,-0.8,1.9,2470.045,13.32,0.011,121.0
2019-05-29T08:23:48,42.805,6.029,0.025,-0.02,-0.035,101.0,101.0,97.0,13.4,1505.3,327.6,-0.7,1.9,2470.035,13.32,0.032,128.7
2019-05-29T08:26:49,42.805,6.029,0.028,0.002,-0.004,99.0,103.0,97.0,13.4,1505.3,324.8,-0.8,1.8,2470.077,13.32,0.028,85.9
2019-05-29T08:29:50,42.805,6.029,0.029,-0.029,-0.026,101.0,101.0,98.0,13.4,1505.3,325.6,-0.7,1.9,2470.015,13.32,0.041,135.0
2019-05-29T08:32:51,42.805,6.029,-0.007,-0.022,-0.056,101.0,101.0,96.0,13.4,1505.3,322.9,-0.7,1.9,2470.053,13.32,0.023,197.6
2019-05-29T08:35:52,42.805,6.029,0.013,0.004,-0.062,99.0,102.0,96.0,13.3,1505.3,323.9,-0.8,1.8,2470.035,13.32,0.013,72.9
2019-05-29T08:38:53,42.805,6.029,-0.012,-0.025,-0.034,101.0,102.0,96.0,13.4,1505.3,324.2,-0.7,1.9,2470.071,13.33,0.027,205.6
2019-05-29T08:41:54,42.805,6.029,-0.005,-0.005,0.001,100.0,102.0,97.0,13.4,1505.3,324.7,-0.8,1.8,2470.013,13.33,0.007,225.0
2019-05-29T08:44:55,42.805,6.029,0.005,-0.002,-0.031,100.0,103.0,97.0,13.4,1505.3,325.2,-0.8,1.8,2470.011,13.33,0.005,111.8
2019-05-29T08:47:56,42.805,6.029,-0.024,0.006,-0.068,102.0,102.0,97.0,13.4,1505.3,323.6,-0.7,1.8,2470.044,13.33,0.024,284.0
2019-05-29T08:50:57,42.805,6.029,0.002,-0.01,-0.007,99.0,102.0,100.0,13.3,1505.3,325.9,-0.8,1.9,2470.088,13.33,0.01,168.7
2019-05-29T08:53:58,42.805,6.029,0.024,0.006,-0.019,100.0,102.0,97.0,13.4,1505.3,324.8,-0.7,1.8,2470.011,13.33,0.024,76.0
2019-05-29T08:56:59,42.805,6.029,0.012,-0.019,-0.045,101.0,101.0,97.0,13.4,1505.3,325.8,-0.8,1.8,2469.954,13.33,0.022,147.7
2019-05-29T09:00:00,42.805,6.029,-0.001,-0.016,-0.033,101.0,100.0,98.0,13.4,1505.3,327.8,-0.7,1.8,2469.973,13.33,0.016,183.6
2019-05-29T09:03:01,42.805,6.029,-0.014,0.004,-0.061,99.0,102.0,99.0,13.4,1505.3,326.2,-0.8,1.9,2470.01,13.33,0.014,285.9
2019-05-29T09:06:02,42.805,6.029,0.012,0.019,-0.026,101.0,102.0,97.0,13.3,1505.3,324.4,-0.8,1.8,2470.043,13.33,0.022,32.3
2019-05-29T09:09:03,42.805,6.029,0.022,0.008,0.004,99.0,102.0,98.0,13.4,1505.3,327.3,-0.7,1.9,2470.035,13.33,0.023,70.0
2019-05-29T09:12:04,42.805,6.029,0.017,-0.022,-0.029,102.0,101.0,97.0,13.4,1505.3,324.5,-0.8,1.9,2470.01,13.33,0.027,142.3
2019-05-29T09:15:05,42.805,6.029,0.012,0.002,-0.032,100.0,101.0,98.0,13.4,1505.3,324.4,-0.7,1.8,2470.005,13.33,0.012,80.5
2019-05-29T09:18:06,42.805,6.029,-0.017,0.011,-0.051,101.0,102.0,99.0,13.4,1505.3,324.7,-0.7,1.8,2469.998,13.33,0.02,302.9
2019-05-29T09:21:07,42.805,6.029,0.003,-0.022,-0.042,101.0,102.0,98.0,13.4,1505.3,324.8,-0.7,1.8,2469.988,13.33,0.022,172.2
2019-05-29T09:24:08,42.805,6.029,0.005,0.0,0.01,100.0,101.0,98.0,13.4,1505.3,328.5,-0.8,1.9,2469.998,13.33,0.005,90.0
2019-05-29T09:27:09,42.805,6.029,-0.002,0.014,-0.001,100.0,104.0,98.0,13.3,1505.3,323.8,-0.8,1.8,2470.039,13.33,0.014,351.9
2019-05-29T09:30:10,42.805,6.029,-0.018,-0.019,-0.031,102.0,102.0,96.0,13.4,1505.3,324.6,-0.7,1.9,2470.04,13.33,0.026,223.5
2019-05-29T09:33:11,42.805,6.029,0.0,-0.001,0.007,101.0,101.0,98.0,13.4,1505.3,323.9,-0.8,1.8,2469.983,13.33,0.001,180.0
2019-05-29T09:36:12,42.805,6.029,-0.001,-0.001,-0.028,100.0,102.0,97.0,13.3,1505.3,326.5,-0.8,1.9,2470.021,13.33,0.001,225.0
2019-05-29T09:39:13,42.805,6.029,0.018,0.003,-0.013,101.0,103.0,97.0,13.3,1505.3,326.9,-0.8,1.8,2470.03,13.33,0.018,80.5
2019-05-29T09:42:14,42.805,6.029,0.001,0.005,-0.042,100.0,104.0,98.0,13.3,1505.3,324.0,-0.8,1.9,2469.989,13.33,0.005,11.3
2019-05-29T09:45:15,42.805,6.029,0.011,-0.008,-0.009,102.0,101.0,98.0,13.4,1505.3,324.7,-0.8,1.8,2470.026,13.33,0.013,126.0